KB0OLA Weather Reports


Display with metric or nautical units.
time (UTC)temp
F
wind
direction
speed
MPH
gust
MPH
rain 1hr
in
rain 24hr
in
rain mn
in
humidity
%
barometer
mb
20260505034517 61 158 3.0 9.0 0.00 0.00 0.00 40 1007.2
20260505033517 60 180 4.0 9.0 0.00 0.00 0.00 40 1007.0
20260505032517 60 0.0 0.0 0.00 0.00 0.00 41 1006.8
20260505031517 61 0.0 0.0 0.00 0.00 0.00 40 1006.6
20260505030517 62 0.0 0.0 0.00 0.00 0.00 36 1006.4
20260505025517 63 0.0 0.0 0.00 0.00 0.00 36 1006.2
20260505024517 64 0.0 0.0 0.00 0.00 0.00 35 1006.1
20260505023517 65 0.0 0.0 0.00 0.00 0.00 33 1006.0
20260505022517 65 180 1.0 4.0 0.00 0.00 0.00 32 1006.0
20260505021516 66 0.0 2.0 0.00 0.00 0.00 31 1006.1
20260505020537 66 0.0 3.0 0.00 0.00 0.00 31 1005.9
20260505015517 67 180 3.0 7.0 0.00 0.00 0.00 29 1005.9
20260505014516 68 180 3.0 5.0 0.00 0.00 0.00 29 1005.9
20260505013516 68 203 4.0 8.0 0.00 0.00 0.00 28 1005.9
20260505012518 69 180 4.0 10.0 0.00 0.00 0.00 28 1005.9
20260505011518 69 180 3.0 8.0 0.00 0.00 0.00 27 1006.0
20260505010518 70 180 2.0 6.0 0.00 0.00 0.00 27 1006.1
20260505005518 70 180 3.0 6.0 0.00 0.00 0.00 28 1006.1
20260505004539 71 180 3.0 6.0 0.00 0.00 0.00 27 1006.2
20260505003518 71 203 5.0 11.0 0.00 0.00 0.00 28 1006.3
20260505002518 72 180 5.0 10.0 0.00 0.00 0.00 27 1006.4
20260505001538 72 180 4.0 10.0 0.00 0.00 0.00 27 1006.4
20260505000538 72 180 5.0 11.0 0.00 0.00 0.00 27 1006.5
20260504235518 72 180 6.0 15.0 0.00 0.00 0.00 27 1006.5
20260504234518 72 203 9.0 16.0 0.00 0.00 0.00 28 1006.6
20260504233518 72 225 6.0 12.0 0.00 0.00 0.00 25 1006.5
20260504232518 72 225 5.0 12.0 0.00 0.00 0.00 25 1006.6
20260504231518 72 225 3.0 8.0 0.00 0.00 0.00 26 1006.5
20260504230518 72 225 5.0 12.0 0.00 0.00 0.00 26 1006.7
20260504225518 71 248 7.0 15.0 0.00 0.00 0.00 27 1006.7
20260504224518 72 248 8.0 16.0 0.00 0.00 0.00 27 1006.6
20260504223518 73 248 8.0 17.0 0.00 0.00 0.00 26 1006.5
20260504222518 74 248 9.0 16.0 0.00 0.00 0.00 26 1006.5
20260504221518 75 248 4.0 9.0 0.00 0.00 0.00 22 1006.4
20260504220538 76 293 4.0 11.0 0.00 0.00 0.00 21 1006.6
20260504215517 75 203 4.0 8.0 0.00 0.00 0.00 22 1006.7
20260504214518 75 293 3.0 8.0 0.00 0.00 0.00 22 1006.9
20260504213517 74 293 5.0 11.0 0.00 0.00 0.00 22 1007.0
20260504212517 75 315 3.0 11.0 0.00 0.00 0.00 21 1007.2
20260504211518 75 180 4.0 10.0 0.00 0.00 0.00 22 1007.2
20260504210517 75 270 5.0 13.0 0.00 0.00 0.00 23 1007.4
20260504205517 74 270 2.0 8.0 0.00 0.00 0.00 23 1007.5
20260504204518 74 270 5.0 16.0 0.00 0.00 0.00 24 1007.5
20260504203517 74 248 4.0 9.0 0.00 0.00 0.00 25 1007.7
20260504202518 74 225 2.0 9.0 0.00 0.00 0.00 27 1007.8
20260504201517 74 270 4.0 10.0 0.00 0.00 0.00 27 1007.8
20260504200517 74 248 1.0 8.0 0.00 0.00 0.00 27 1007.9
20260504195517 74 270 2.0 10.0 0.00 0.00 0.00 30 1008.0
20260504194517 73 0.0 4.0 0.00 0.00 0.00 28 1008.1
20260504193517 73 270 1.0 5.0 0.00 0.00 0.00 27 1008.3
20260504192517 73 248 3.0 9.0 0.00 0.00 0.00 26 1008.4
20260504191517 72 270 5.0 10.0 0.00 0.00 0.00 26 1008.5
20260504190518 72 0.0 2.0 0.00 0.00 0.00 28 1008.6
20260504185517 71 0.0 0.0 0.00 0.00 0.00 28 1008.7
20260504184517 72 248 2.0 6.0 0.00 0.00 0.00 26 1008.7
20260504183517 72 248 3.0 9.0 0.00 0.00 0.00 28 1008.9
20260504182517 72 180 2.0 5.0 0.00 0.00 0.00 27 1009.1
20260504181537 71 0.0 0.0 0.00 0.00 0.00 32 1009.2
20260504180517 71 203 1.0 8.0 0.00 0.00 0.00 32 1009.4
20260504175537 71 225 2.0 7.0 0.00 0.00 0.00 29 1009.5
20260504174516 71 0.0 1.0 0.00 0.00 0.00 30 1009.5
20260504173517 70 135 4.0 9.0 0.00 0.00 0.00 30 1009.6
20260504172516 70 135 2.0 5.0 0.00 0.00 0.00 31 1009.7
20260504171517 69 180 3.0 8.0 0.00 0.00 0.00 33 1009.7
20260504170517 68 180 2.0 7.0 0.00 0.00 0.00 33 1009.8
20260504150516 61 0.0 0.0 0.00 0.00 0.00 43 1010.1
20260504140518 52 0.0 0.0 0.00 0.00 0.00 53 1010.2
20260504130518 47 0.0 0.0 0.00 0.00 0.00 54 1010.2
20260504110517 51 0.0 0.0 0.00 0.00 0.00 42 1010.2
20260504100537 51 0.0 0.0 0.00 0.00 0.00 43 1009.9
20260504081518 48 0.0 0.0 0.00 0.00 0.00 44 1009.0
20260504080517 48 0.0 0.0 0.00 0.00 0.00 44 1009.0
20260504050517 56 0.0 0.0 0.00 0.00 0.00 31 1009.5
20260504045517 56 0.0 0.0 0.00 0.00 0.00 32 1009.5
20260504044557 54 0.0 0.0 0.00 0.00 0.00 32 1009.6
20260504043517 54 0.0 0.0 0.00 0.00 0.00 36 1009.6
20260504042518 55 0.0 0.0 0.00 0.00 0.00 36 1009.6
20260504041517 55 0.0 0.0 0.00 0.00 0.00 35 1009.6
20260504040517 57 0.0 0.0 0.00 0.00 0.00 34 1009.7
20260504035517 58 0.0 0.0 0.00 0.00 0.00 34 1009.7